Regional Weather Roundup
Issued by NWS Little Rock, AR

Home | Current Version | Previous Version | Graphics & Text | Print | Product List | Glossary On
Versions: 1 2 3 4 5 6 7 8 9 10 11 12 13 14 15 16 17 18 19 20 21 22 23 24 25 26 27 28 29 30 31 32 33 34 35 36 37 38 39 40 41 42 43 44 45 46 47 48 49 50
000
ASUS44 KLZK 031105
RWRLZK

WEATHER ROUNDUP FOR ARKANSAS
NATIONAL WEATHER SERVICE LITTLE ROCK AR
600 AM CDT THU SEP 03 2015

NOTE: "FAIR" INDICATES FEW OR NO CLOUDS BELOW 12,000 FEET WITH NO
SIGNIFICANT WEATHER AND/OR OBSTRUCTIONS TO VISIBILITY.

ARZ001-003-010-029-031200-
NORTHWEST ARKANSAS

CITY           SKY/WX    TMP DP  RH WIND       PRES   REMARKS
FAYETTEVILLE   CLEAR     66  66 100 SE3       30.03S
FORT SMITH     CLEAR     71  68  90 NE5       29.99S
HARRISON       CLEAR     67  66  97 SE3       30.04R
BENTONVILLE    CLEAR     70  63  78 S3        30.03S
ROGERS         CLEAR     69  66  90 SE7       30.03S
SILOAM SPGS    CLEAR     68  61  77 SE5       30.01R
HIGHFILL       CLEAR     69  67  93 S3        30.02S
SPRINGDALE     CLEAR     70  66  88 CALM      30.05
$$

ARZ004-005-016-031200-
NORTH CENTRAL ARKANSAS

CITY           SKY/WX    TMP DP  RH WIND       PRES   REMARKS
BATESVILLE     CLEAR     70  66  88 CALM      30.02S
FLIPPIN        PTCLDY    66  63  88 CALM      30.01R
MTN HOME       CLEAR     68  65  90 CALM      30.02R
$$

ARZ040-041-031200-
WEST CENTRAL ARKANSAS

CITY           SKY/WX    TMP DP  RH WIND       PRES   REMARKS
MENA           CLEAR     68  66  94 CALM      30.03S
MOUNT IDA      CLEAR     66  64  93 CALM      30.00R FOG
$$

ARZ009-017-025-026-028-031200-
NORTHEAST ARKANSAS

CITY           SKY/WX    TMP DP  RH WIND       PRES   REMARKS
JONESBORO      CLEAR     69  69 100 CALM      30.01R
NEWPORT        CLEAR     71  71 100 CALM      30.03R
WALNUT RIDGE   CLEAR     72  66  83 CALM      30.01S
BLYTHEVILLE    CLEAR     72  72 100 SW3       30.01S
$$

ARZ022-023-033-042-044-031200-
CENTRAL ARKANSAS

CITY           SKY/WX    TMP DP  RH WIND       PRES   REMARKS
LITTLE ROCK    CLEAR     72  70  93 CALM      30.01S
N LITTLE ROCK    N/A     71  71  99 CALM      30.01S
JACKSONVILLE   CLEAR     67  67  99 CALM      30.00S
SEARCY         CLEAR     68  67  96 CALM      30.03R FOG
HOT SPRINGS    CLEAR     70  66  87 CALM      30.01S
RUSSELLVILLE   CLEAR     68  66  93 CALM      30.00R
$$

ARZ036-031200-
EAST ARKANSAS

CITY           SKY/WX    TMP DP  RH WIND       PRES   REMARKS
WEST MEMPHIS   FOG       70  70 100 CALM      30.00R VSB 3/4
$$

ARZ050-053-066-070-073-031200-
SOUTHWEST ARKANSAS

CITY           SKY/WX    TMP DP  RH WIND       PRES   REMARKS
ARKADELPHIA    FAIR      67  67 100 CALM      30.01R FOG
CAMDEN         CLEAR     66  64  94 CALM      29.99S FOG
TEXARKANA      CLEAR     68  67  96 CALM      29.99R
EL DORADO      CLEAR     67  66  97 CALM      30.00R
DE QUEEN       CLEAR     67  67 100 CALM      29.98R FOG
$$

ARZ056-057-069-031200-
SOUTHEAST ARKANSAS

CITY           SKY/WX    TMP DP  RH WIND       PRES   REMARKS
PINE BLUFF     CLEAR     70  69  97 CALM      30.00S FOG
STUTTGART      CLEAR     72  64  78 E3        30.01R
MONTICELLO     CLEAR     71  70  96 CALM      30.00S

$$




USA.gov is the U.S. government's official web portal to all federal, state and local government web resources and services.